TimeCDT,TemperatureF,Dew PointF,Humidity,Sea Level PressureIn,VisibilityMPH,Wind Direction,Wind SpeedMPH,Gust SpeedMPH,PrecipitationIn,Events,Conditions,WindDirDegrees,DateUTC
12:15 AM,55.4,32.0,41,29.84,10.0,NNE,12.7,20.7,N/A,,Mostly Cloudy,30,2011-10-16 05:15:00
12:35 AM,55.4,33.8,44,29.85,10.0,NNE,13.8,19.6,N/A,,Scattered Clouds,20,2011-10-16 05:35:00
12:55 AM,53.6,35.6,51,29.85,10.0,North,15.0,21.9,N/A,,Overcast,10,2011-10-16 05:55:00
1:15 AM,50.0,37.4,62,29.85,10.0,North,13.8,21.9,N/A,,Mostly Cloudy,10,2011-10-16 06:15:00
1:35 AM,48.2,39.2,71,29.86,10.0,NNE,12.7,19.6,N/A,,Partly Cloudy,20,2011-10-16 06:35:00
1:55 AM,48.2,39.2,71,29.88,10.0,North,5.8,-,N/A,,Clear,360,2011-10-16 06:55:00
3:15 AM,44.6,37.4,76,29.93,10.0,NNW,10.4,-,N/A,,Clear,330,2011-10-16 08:15:00
3:55 AM,44.6,37.4,76,29.95,10.0,NNW,6.9,-,N/A,,Clear,330,2011-10-16 08:55:00
4:15 AM,42.8,37.4,81,29.96,10.0,WNW,5.8,-,N/A,,Clear,300,2011-10-16 09:15:00
4:56 AM,42.8,37.4,81,29.98,10.0,WNW,8.1,-,N/A,,Clear,290,2011-10-16 09:56:00
5:15 AM,42.8,37.4,81,29.99,10.0,West,8.1,-,N/A,,Clear,280,2011-10-16 10:15:00
5:35 AM,42.8,37.4,81,30.00,10.0,WNW,12.7,-,N/A,,Clear,300,2011-10-16 10:35:00
5:55 AM,42.8,37.4,81,30.00,10.0,NW,10.4,-,N/A,,Clear,310,2011-10-16 10:55:00
6:35 AM,41.0,37.4,87,30.00,10.0,WNW,8.1,-,N/A,,Clear,300,2011-10-16 11:35:00
7:16 AM,41.0,35.6,81,30.02,10.0,West,6.9,-,N/A,,Clear,280,2011-10-16 12:16:00
7:35 AM,41.0,35.6,81,30.03,10.0,WNW,10.4,-,N/A,,Scattered Clouds,300,2011-10-16 12:35:00
7:55 AM,41.0,35.6,81,30.03,10.0,WNW,9.2,-,N/A,,Partly Cloudy,290,2011-10-16 12:55:00
8:15 AM,42.8,37.4,81,30.04,10.0,WNW,10.4,-,N/A,,Partly Cloudy,290,2011-10-16 13:15:00
8:35 AM,44.6,37.4,76,30.04,10.0,WNW,11.5,-,N/A,,Scattered Clouds,290,2011-10-16 13:35:00
8:55 AM,44.6,37.4,76,30.05,10.0,WNW,11.5,-,N/A,,Scattered Clouds,290,2011-10-16 13:55:00
9:36 AM,46.4,39.2,76,30.06,10.0,WNW,13.8,-,N/A,,Clear,290,2011-10-16 14:36:00
9:55 AM,48.2,39.2,71,30.07,10.0,WNW,13.8,-,N/A,,Clear,300,2011-10-16 14:55:00
10:15 AM,48.2,39.2,71,30.07,10.0,WNW,16.1,-,N/A,,Clear,300,2011-10-16 15:15:00
10:35 AM,50.0,39.2,66,30.08,10.0,NW,12.7,-,N/A,,Clear,310,2011-10-16 15:35:00
10:55 AM,51.8,39.2,62,30.08,10.0,NW,16.1,-,N/A,,Clear,310,2011-10-16 15:55:00
11:15 AM,51.8,39.2,62,30.08,10.0,NW,16.1,-,N/A,,Clear,310,2011-10-16 16:15:00
11:56 AM,53.6,39.2,58,30.09,10.0,NW,16.1,-,N/A,,Partly Cloudy,310,2011-10-16 16:56:00
12:35 PM,55.4,39.2,54,30.09,10.0,NNW,17.3,-,N/A,,Partly Cloudy,330,2011-10-16 17:35:00
12:55 PM,55.4,37.4,51,30.08,10.0,NW,12.7,20.7,N/A,,Clear,310,2011-10-16 17:55:00
1:15 PM,55.4,35.6,47,30.07,10.0,WNW,16.1,24.2,N/A,,Clear,300,2011-10-16 18:15:00
1:35 PM,57.2,33.8,41,30.07,10.0,NW,17.3,25.3,N/A,,Partly Cloudy,310,2011-10-16 18:35:00
2:16 PM,57.2,30.2,36,30.05,10.0,WNW,20.7,26.5,N/A,,Clear,290,2011-10-16 19:16:00
2:35 PM,57.2,30.2,36,30.05,10.0,WNW,21.9,-,N/A,,Clear,300,2011-10-16 19:35:00
2:55 PM,57.2,28.4,33,30.04,10.0,NW,21.9,26.5,N/A,,Clear,310,2011-10-16 19:55:00
3:15 PM,57.2,30.2,36,30.04,10.0,WNW,17.3,20.7,N/A,,Clear,290,2011-10-16 20:15:00
3:35 PM,57.2,28.4,33,30.04,10.0,NW,19.6,-,N/A,,Clear,310,2011-10-16 20:35:00
3:55 PM,57.2,28.4,33,30.04,10.0,WNW,17.3,23.0,N/A,,Clear,290,2011-10-16 20:55:00
4:36 PM,57.2,24.8,29,30.03,10.0,WNW,20.7,25.3,N/A,,Clear,300,2011-10-16 21:36:00
4:55 PM,57.2,26.6,31,30.03,10.0,WNW,15.0,-,N/A,,Clear,300,2011-10-16 21:55:00
5:15 PM,57.2,24.8,29,30.03,10.0,WNW,15.0,-,N/A,,Clear,290,2011-10-16 22:15:00
5:35 PM,57.2,26.6,31,30.03,10.0,WNW,15.0,-,N/A,,Clear,300,2011-10-16 22:35:00
5:55 PM,55.4,24.8,31,30.03,10.0,WNW,15.0,-,N/A,,Clear,300,2011-10-16 22:55:00
6:15 PM,53.6,26.6,35,30.03,10.0,WNW,11.5,-,N/A,,Clear,300,2011-10-16 23:15:00
6:56 PM,50.0,26.6,40,30.03,10.0,West,8.1,-,N/A,,Clear,280,2011-10-16 23:56:00
7:15 PM,50.0,26.6,40,30.03,10.0,West,8.1,-,N/A,,Clear,270,2011-10-17 00:15:00
7:35 PM,48.2,26.6,43,30.03,10.0,WSW,8.1,-,N/A,,Clear,250,2011-10-17 00:35:00
7:55 PM,48.2,26.6,43,30.03,10.0,West,9.2,-,N/A,,Clear,270,2011-10-17 00:55:00
8:15 PM,46.4,26.6,46,30.03,10.0,West,10.4,-,N/A,,Clear,260,2011-10-17 01:15:00
8:35 PM,48.2,26.6,43,30.04,10.0,West,11.5,-,N/A,,Clear,270,2011-10-17 01:35:00
9:16 PM,46.4,26.6,46,30.03,10.0,West,10.4,-,N/A,,Clear,280,2011-10-17 02:16:00
9:35 PM,46.4,26.6,46,30.04,10.0,West,11.5,-,N/A,,Clear,270,2011-10-17 02:35:00
9:55 PM,46.4,26.6,46,30.04,10.0,WNW,12.7,-,N/A,,Clear,300,2011-10-17 02:55:00
10:15 PM,42.8,26.6,53,30.04,10.0,WNW,10.4,-,N/A,,Clear,300,2011-10-17 03:15:00
10:35 PM,42.8,26.6,53,30.04,10.0,WNW,9.2,-,N/A,,Clear,300,2011-10-17 03:35:00
10:55 PM,39.2,26.6,61,30.04,10.0,WNW,9.2,-,N/A,,Clear,300,2011-10-17 03:55:00
11:36 PM,37.4,26.6,65,30.03,10.0,NW,6.9,-,N/A,,Clear,320,2011-10-17 04:36:00
11:55 PM,39.2,26.6,61,30.03,10.0,SSW,4.6,-,N/A,,Clear,210,2011-10-17 04:55:00